Wetterdaten: Donnerstag, 28.05.2015
Datum Zeit Auen-Temp. Temp gefhlt Luftfeuchte Luftdruck Regen Wind Richtung Richtung Taupunkt Windben
28.05.2015 00:00 4,6 C 4,1 C 83 % 1019,9 hPa 0,0 mm 0,0 km/h (0 Bft) S 180 2,0 C 0,0 km/h (0 Bft)
28.05.2015 00:05 4,7 C 4,2 C 84 % 1019,9 hPa 0,0 mm 0,0 km/h (0 Bft) S 180 2,2 C 0,0 km/h (0 Bft)
28.05.2015 00:10 4,3 C 3,9 C 84 % 1019,9 hPa 0,0 mm 0,0 km/h (0 Bft) S 180 1,8 C 0,0 km/h (0 Bft)
28.05.2015 00:15 4,3 C 3,9 C 84 % 1019,8 hPa 0,0 mm 0,0 km/h (0 Bft) S 180 1,8 C 0,0 km/h (0 Bft)
28.05.2015 00:20 3,9 C 3,6 C 84 % 1019,8 hPa 0,0 mm 0,0 km/h (0 Bft) S 180 1,4 C 0,0 km/h (0 Bft)
28.05.2015 00:25 3,9 C 3,5 C 84 % 1019,8 hPa 0,0 mm 0,0 km/h (0 Bft) S 180 1,4 C 0,0 km/h (0 Bft)
28.05.2015 00:30 3,6 C 3,3 C 84 % 1019,8 hPa 0,0 mm 0,0 km/h (0 Bft) S 180 1,2 C 0,0 km/h (0 Bft)
28.05.2015 00:35 3,5 C 3,2 C 84 % 1019,6 hPa 0,0 mm 0,0 km/h (0 Bft) S 180 1,1 C 0,0 km/h (0 Bft)
28.05.2015 00:40 3,2 C 2,9 C 84 % 1019,6 hPa 0,0 mm 0,0 km/h (0 Bft) S 180 0,8 C 0,0 km/h (0 Bft)
28.05.2015 00:45 3,1 C 2,8 C 84 % 1019,6 hPa 0,0 mm 0,0 km/h (0 Bft) S 180 0,7 C 0,0 km/h (0 Bft)
28.05.2015 00:50 3,0 C 2,6 C 84 % 1019,6 hPa 0,0 mm 0,0 km/h (0 Bft) S 180 0,6 C 0,0 km/h (0 Bft)
28.05.2015 00:55 2,9 C 2,5 C 85 % 1019,3 hPa 0,0 mm 0,0 km/h (0 Bft) S 180 0,6 C 0,0 km/h (0 Bft)
28.05.2015 01:00 2,7 C 2,3 C 85 % 1019,3 hPa 0,0 mm 0,0 km/h (0 Bft) S 180 0,4 C 0,0 km/h (0 Bft)
28.05.2015 01:05 2,8 C 2,4 C 85 % 1019,3 hPa 0,0 mm 0,0 km/h (0 Bft) S 180 0,5 C 0,0 km/h (0 Bft)
28.05.2015 01:10 2,6 C 2,2 C 86 % 1019,3 hPa 0,0 mm 0,0 km/h (0 Bft) S 180 0,5 C 0,0 km/h (0 Bft)
28.05.2015 01:15 2,6 C 2,2 C 86 % 1019,2 hPa 0,0 mm 0,0 km/h (0 Bft) S 180 0,5 C 0,0 km/h (0 Bft)
28.05.2015 01:20 2,5 C 2,1 C 86 % 1019,2 hPa 0,0 mm 0,0 km/h (0 Bft) S 180 0,4 C 0,0 km/h (0 Bft)
28.05.2015 01:25 2,4 C 2,0 C 86 % 1019,2 hPa 0,0 mm 0,0 km/h (0 Bft) S 180 0,3 C 0,0 km/h (0 Bft)
28.05.2015 01:30 2,4 C 1,9 C 86 % 1019,2 hPa 0,0 mm 0,0 km/h (0 Bft) S 180 0,3 C 0,0 km/h (0 Bft)
28.05.2015 01:35 2,6 C 2,1 C 86 % 1019,1 hPa 0,0 mm 0,0 km/h (0 Bft) S 180 0,5 C 0,0 km/h (0 Bft)
28.05.2015 01:40 2,8 C 2,3 C 87 % 1019,1 hPa 0,0 mm 0,0 km/h (0 Bft) S-SW 202 0,9 C 0,0 km/h (0 Bft)
28.05.2015 01:45 2,7 C 2,3 C 87 % 1019,1 hPa 0,0 mm 0,0 km/h (0 Bft) S 180 0,8 C 0,0 km/h (0 Bft)
28.05.2015 01:50 2,7 C 2,3 C 88 % 1019,1 hPa 0,0 mm 0,0 km/h (0 Bft) S 180 0,9 C 0,0 km/h (0 Bft)
28.05.2015 01:55 2,6 C 2,2 C 87 % 1019,0 hPa 0,0 mm 0,0 km/h (0 Bft) S 180 0,7 C 0,0 km/h (0 Bft)
28.05.2015 02:00 2,4 C 2,1 C 87 % 1019,0 hPa 0,0 mm 0,0 km/h (0 Bft) S 180 0,5 C 0,0 km/h (0 Bft)
28.05.2015 02:05 2,3 C 1,9 C 87 % 1019,0 hPa 0,0 mm 0,0 km/h (0 Bft) S 180 0,4 C 0,0 km/h (0 Bft)
28.05.2015 02:10 2,4 C 2,0 C 88 % 1019,0 hPa 0,0 mm 0,0 km/h (0 Bft) S 180 0,6 C 0,0 km/h (0 Bft)
28.05.2015 02:15 2,2 C 1,8 C 88 % 1018,8 hPa 0,0 mm 0,0 km/h (0 Bft) S 180 0,4 C 0,0 km/h (0 Bft)
28.05.2015 02:20 2,0 C 1,6 C 87 % 1018,8 hPa 0,0 mm 0,0 km/h (0 Bft) S 180 0,1 C 0,0 km/h (0 Bft)
28.05.2015 02:25 2,0 C 1,6 C 87 % 1018,8 hPa 0,0 mm 0,0 km/h (0 Bft) S 180 0,1 C 0,0 km/h (0 Bft)
28.05.2015 02:30 1,9 C 1,5 C 88 % 1018,8 hPa 0,0 mm 0,0 km/h (0 Bft) S 180 0,1 C 0,0 km/h (0 Bft)
28.05.2015 02:35 2,0 C 1,5 C 88 % 1018,8 hPa 0,0 mm 0,0 km/h (0 Bft) S 180 0,2 C 0,0 km/h (0 Bft)
28.05.2015 02:40 1,9 C 1,4 C 88 % 1018,8 hPa 0,0 mm 0,0 km/h (0 Bft) S 180 0,1 C 0,0 km/h (0 Bft)
28.05.2015 02:45 1,9 C 1,4 C 88 % 1018,8 hPa 0,0 mm 0,0 km/h (0 Bft) S-SO 157 0,1 C 0,0 km/h (0 Bft)
28.05.2015 02:50 1,9 C 1,4 C 88 % 1018,8 hPa 0,0 mm 0,0 km/h (0 Bft) W-SW 247 0,1 C 0,0 km/h (0 Bft)
28.05.2015 02:55 1,9 C 1,4 C 88 % 1018,6 hPa 0,0 mm 0,0 km/h (0 Bft) SW 225 0,1 C 0,0 km/h (0 Bft)
28.05.2015 03:00 1,8 C 1,3 C 88 % 1018,6 hPa 0,0 mm 0,0 km/h (0 Bft) W-SW 247 0,0 C 0,0 km/h (0 Bft)
28.05.2015 03:05 1,7 C 1,3 C 88 % 1018,6 hPa 0,0 mm 0,0 km/h (0 Bft) W-SW 247 -0,1 C 0,0 km/h (0 Bft)
28.05.2015 03:10 1,9 C 1,4 C 89 % 1018,6 hPa 0,0 mm 0,0 km/h (0 Bft) SW 225 0,3 C 0,0 km/h (0 Bft)
28.05.2015 03:15 1,8 C 1,4 C 89 % 1023,6 hPa 0,0 mm 0,0 km/h (0 Bft) W-SW 247 0,2 C 0,0 km/h (0 Bft)
28.05.2015 03:20 1,7 C 1,3 C 89 % 1023,6 hPa 0,0 mm 0,0 km/h (0 Bft) W-SW 247 0,1 C 0,0 km/h (0 Bft)
28.05.2015 03:25 1,6 C 1,2 C 89 % 1023,6 hPa 0,0 mm 0,0 km/h (0 Bft) W-SW 247 -0,0 C 0,0 km/h (0 Bft)
28.05.2015 03:30 1,5 C 1,1 C 89 % 1023,6 hPa 0,0 mm 0,0 km/h (0 Bft) W-SW 247 -0,1 C 0,0 km/h (0 Bft)
28.05.2015 03:35 1,4 C 1,0 C 89 % 1023,6 hPa 0,0 mm 0,0 km/h (0 Bft) W-SW 247 -0,2 C 0,0 km/h (0 Bft)
28.05.2015 03:40 1,4 C 1,0 C 89 % 1023,6 hPa 0,0 mm 0,0 km/h (0 Bft) W-SW 247 -0,2 C 0,0 km/h (0 Bft)
28.05.2015 03:45 1,4 C 0,9 C 89 % 1023,6 hPa 0,0 mm 0,0 km/h (0 Bft) W-SW 247 -0,2 C 0,0 km/h (0 Bft)
28.05.2015 03:50 1,6 C 1,1 C 89 % 1023,6 hPa 0,0 mm 0,0 km/h (0 Bft) W-SW 247 -0,0 C 0,0 km/h (0 Bft)
28.05.2015 03:55 1,5 C 1,1 C 89 % 1023,6 hPa 0,0 mm 0,0 km/h (0 Bft) SW 225 -0,1 C 0,0 km/h (0 Bft)
28.05.2015 04:00 1,5 C 1,1 C 89 % 1023,6 hPa 0,0 mm 0,0 km/h (0 Bft) W-SW 247 -0,1 C 0,0 km/h (0 Bft)
28.05.2015 04:05 1,5 C 1,1 C 89 % 1023,6 hPa 0,0 mm 0,0 km/h (0 Bft) W-SW 247 -0,1 C 0,0 km/h (0 Bft)
28.05.2015 04:10 1,5 C 1,1 C 89 % 1023,6 hPa 0,0 mm 0,0 km/h (0 Bft) S-SW 202 -0,1 C 0,0 km/h (0 Bft)
28.05.2015 04:15 1,6 C 1,1 C 89 % 1023,5 hPa 0,0 mm 0,0 km/h (0 Bft) W-SW 247 -0,0 C 0,0 km/h (0 Bft)
28.05.2015 04:20 1,4 C 0,9 C 89 % 1023,5 hPa 0,0 mm 0,0 km/h (0 Bft) S 180 -0,2 C 0,0 km/h (0 Bft)
28.05.2015 04:25 1,4 C 0,9 C 89 % 1023,5 hPa 0,0 mm 0,0 km/h (0 Bft) W 270 -0,2 C 0,0 km/h (0 Bft)
28.05.2015 04:30 1,6 C 1,2 C 89 % 1023,5 hPa 0,0 mm 0,0 km/h (0 Bft) W-SW 247 -0,0 C 0,0 km/h (0 Bft)
28.05.2015 04:35 1,6 C 1,2 C 90 % 1023,2 hPa 0,0 mm 0,0 km/h (0 Bft) W-SW 247 0,1 C 0,0 km/h (0 Bft)
28.05.2015 04:40 1,7 C 1,3 C 90 % 1023,2 hPa 0,0 mm 0,0 km/h (0 Bft) W 270 0,2 C 0,0 km/h (0 Bft)
28.05.2015 04:45 1,8 C 1,4 C 90 % 1023,2 hPa 0,0 mm 0,0 km/h (0 Bft) SW 225 0,3 C 0,0 km/h (0 Bft)
28.05.2015 04:50 1,9 C 1,5 C 90 % 1023,2 hPa 0,0 mm 0,0 km/h (0 Bft) W-NW 292 0,4 C 0,0 km/h (0 Bft)
28.05.2015 04:55 1,5 C 1,2 C 90 % 1023,2 hPa 0,0 mm 0,0 km/h (0 Bft) W 270 0,0 C 0,0 km/h (0 Bft)
28.05.2015 05:00 1,4 C 1,0 C 90 % 1023,2 hPa 0,0 mm 0,0 km/h (0 Bft) W 270 -0,1 C 0,0 km/h (0 Bft)
28.05.2015 05:05 1,2 C 0,9 C 90 % 1023,2 hPa 0,0 mm 0,0 km/h (0 Bft) W-NW 292 -0,3 C 0,0 km/h (0 Bft)
28.05.2015 05:10 1,0 C 0,7 C 89 % 1020,2 hPa 0,0 mm 0,0 km/h (0 Bft) NW 315 -0,6 C 0,0 km/h (0 Bft)
28.05.2015 05:15 1,1 C 0,7 C 90 % 1020,2 hPa 0,0 mm 0,0 km/h (0 Bft) W-NW 292 -0,4 C 0,0 km/h (0 Bft)
28.05.2015 05:20 1,0 C 0,7 C 90 % 1020,2 hPa 0,0 mm 0,0 km/h (0 Bft) NW 315 -0,5 C 0,0 km/h (0 Bft)
28.05.2015 05:25 1,1 C 0,7 C 90 % 1020,2 hPa 0,0 mm 0,0 km/h (0 Bft) W-SW 247 -0,4 C 0,0 km/h (0 Bft)
28.05.2015 05:30 1,0 C 0,7 C 90 % 1020,4 hPa 0,0 mm 0,0 km/h (0 Bft) W-SW 247 -0,5 C 0,0 km/h (0 Bft)
28.05.2015 05:35 1,0 C 0,7 C 90 % 1020,4 hPa 0,0 mm 0,0 km/h (0 Bft) SW 225 -0,5 C 0,0 km/h (0 Bft)
28.05.2015 05:40 1,0 C 0,7 C 90 % 1020,4 hPa 0,0 mm 0,0 km/h (0 Bft) SW 225 -0,5 C 0,0 km/h (0 Bft)
28.05.2015 05:45 1,0 C 0,7 C 90 % 1020,4 hPa 0,0 mm 0,0 km/h (0 Bft) W-SW 247 -0,5 C 0,0 km/h (0 Bft)
28.05.2015 05:50 1,0 C 0,7 C 90 % 1020,3 hPa 0,0 mm 0,0 km/h (0 Bft) W-SW 247 -0,5 C 0,0 km/h (0 Bft)
28.05.2015 05:55 1,2 C 0,9 C 90 % 1020,3 hPa 0,0 mm 0,0 km/h (0 Bft) W-SW 247 -0,3 C 0,0 km/h (0 Bft)
28.05.2015 06:00 1,6 C 1,9 C 91 % 1020,3 hPa 0,0 mm 0,0 km/h (0 Bft) W 270 0,3 C 0,0 km/h (0 Bft)
28.05.2015 06:05 1,7 C 3,3 C 87 % 1020,3 hPa 0,0 mm 0,0 km/h (0 Bft) W 270 -0,2 C 0,0 km/h (0 Bft)
28.05.2015 06:10 2,2 C 4,6 C 87 % 1020,3 hPa 0,0 mm 0,0 km/h (0 Bft) SW 225 0,3 C 0,0 km/h (0 Bft)
28.05.2015 06:15 2,6 C 5,1 C 87 % 1020,3 hPa 0,0 mm 0,0 km/h (0 Bft) NW 315 0,7 C 0,0 km/h (0 Bft)
28.05.2015 06:20 2,9 C 6,0 C 87 % 1020,3 hPa 0,0 mm 0,0 km/h (0 Bft) N-NW 337 1,0 C 0,0 km/h (0 Bft)
28.05.2015 06:25 3,2 C 6,7 C 87 % 1020,3 hPa 0,0 mm 0,0 km/h (0 Bft) N-NW 337 1,2 C 0,0 km/h (0 Bft)
28.05.2015 06:30 3,6 C 7,9 C 87 % 1020,2 hPa 0,0 mm 0,0 km/h (0 Bft) N-NO 22 1,6 C 0,0 km/h (0 Bft)
28.05.2015 06:35 3,8 C 8,5 C 87 % 1020,2 hPa 0,0 mm 0,0 km/h (0 Bft) N-NO 22 1,8 C 0,0 km/h (0 Bft)
28.05.2015 06:40 4,4 C 9,8 C 86 % 1020,2 hPa 0,0 mm 0,3 km/h (0 Bft) W-NW 292 2,3 C 0,0 km/h (0 Bft)
28.05.2015 06:45 5,1 C 10,5 C 86 % 1020,2 hPa 0,0 mm 0,3 km/h (0 Bft) NO 45 3,0 C 0,0 km/h (0 Bft)
28.05.2015 06:50 5,8 C 11,5 C 86 % 1020,6 hPa 0,0 mm 0,0 km/h (0 Bft) N-NW 337 3,6 C 0,0 km/h (0 Bft)
28.05.2015 06:55 6,3 C 12,1 C 85 % 1020,6 hPa 0,0 mm 0,3 km/h (0 Bft) W-NW 292 4,0 C 0,0 km/h (0 Bft)
28.05.2015 07:00 6,9 C 13,6 C 85 % 1020,6 hPa 0,0 mm 0,0 km/h (0 Bft) NO 45 4,6 C 0,0 km/h (0 Bft)
28.05.2015 07:05 7,3 C 14,1 C 84 % 1020,6 hPa 0,0 mm 0,3 km/h (0 Bft) W-SW 247 4,8 C 3,4 km/h (1 Bft)
28.05.2015 07:10 7,7 C 14,9 C 83 % 1020,6 hPa 0,0 mm 0,3 km/h (0 Bft) W-NW 292 5,0 C 0,0 km/h (0 Bft)
28.05.2015 07:15 8,2 C 15,6 C 82 % 1020,6 hPa 0,0 mm 0,3 km/h (0 Bft) S-SW 202 5,3 C 3,6 km/h (1 Bft)
28.05.2015 07:20 8,7 C 15,8 C 81 % 1020,6 hPa 0,0 mm 0,3 km/h (0 Bft) S 180 5,6 C 0,0 km/h (0 Bft)
28.05.2015 07:25 8,8 C 16,2 C 80 % 1020,6 hPa 0,0 mm 0,3 km/h (0 Bft) SO 135 5,5 C 4,4 km/h (1 Bft)
28.05.2015 07:30 9,5 C 17,2 C 79 % 1020,5 hPa 0,0 mm 0,0 km/h (0 Bft) SO 135 6,0 C 0,0 km/h (0 Bft)
28.05.2015 07:35 9,8 C 18,0 C 78 % 1020,5 hPa 0,0 mm 0,0 km/h (0 Bft) O-NO 67 6,1 C 0,0 km/h (0 Bft)
28.05.2015 07:40 9,9 C 18,9 C 77 % 1020,5 hPa 0,0 mm 0,0 km/h (0 Bft) O 90 6,1 C 0,0 km/h (0 Bft)
28.05.2015 07:45 10,2 C 19,5 C 76 % 1020,5 hPa 0,0 mm 0,0 km/h (0 Bft) S-SO 157 6,2 C 0,0 km/h (0 Bft)
28.05.2015 07:50 10,6 C 20,9 C 75 % 1020,2 hPa 0,0 mm 0,0 km/h (0 Bft) S-SO 157 6,4 C 0,0 km/h (0 Bft)
28.05.2015 07:55 10,6 C 21,5 C 74 % 1020,2 hPa 0,0 mm 0,0 km/h (0 Bft) S-SO 157 6,2 C 0,0 km/h (0 Bft)
28.05.2015 08:00 11,3 C 21,8 C 73 % 1020,2 hPa 0,0 mm 0,0 km/h (0 Bft) S-SO 157 6,6 C 0,0 km/h (0 Bft)
28.05.2015 08:05 11,4 C 22,2 C 72 % 1020,2 hPa 0,0 mm 0,0 km/h (0 Bft) SO 135 6,5 C 0,0 km/h (0 Bft)
28.05.2015 08:10 11,6 C 22,7 C 71 % 1020,2 hPa 0,0 mm 0,0 km/h (0 Bft) SO 135 6,5 C 0,0 km/h (0 Bft)
28.05.2015 08:15 12,0 C 22,8 C 71 % 1020,2 hPa 0,0 mm 0,0 km/h (0 Bft) SO 135 6,9 C 0,0 km/h (0 Bft)
28.05.2015 08:20 12,2 C 22,8 C 70 % 1020,2 hPa 0,0 mm 0,0 km/h (0 Bft) SO 135 6,9 C 0,0 km/h (0 Bft)
28.05.2015 08:25 12,5 C 22,9 C 69 % 1020,2 hPa 0,0 mm 0,0 km/h (0 Bft) NW 315 7,0 C 0,0 km/h (0 Bft)
28.05.2015 08:30 13,1 C 22,1 C 67 % 1020,2 hPa 0,0 mm 0,5 km/h (0 Bft) W 270 7,1 C 0,0 km/h (0 Bft)
28.05.2015 08:35 13,7 C 21,9 C 66 % 1020,2 hPa 0,0 mm 1,6 km/h (1 Bft) W-SW 247 7,5 C 9,8 km/h (2 Bft)
28.05.2015 08:40 13,2 C 21,7 C 64 % 1020,2 hPa 0,0 mm 2,3 km/h (1 Bft) NO 45 6,5 C 0,0 km/h (0 Bft)
28.05.2015 08:45 13,6 C 22,0 C 64 % 1020,2 hPa 0,0 mm 2,3 km/h (1 Bft) W-NW 292 6,9 C 9,8 km/h (2 Bft)
28.05.2015 08:50 14,3 C 22,4 C 62 % 1020,2 hPa 0,0 mm 1,3 km/h (1 Bft) W 270 7,1 C 0,0 km/h (0 Bft)
28.05.2015 08:55 14,7 C 22,9 C 62 % 1020,2 hPa 0,0 mm 1,6 km/h (1 Bft) NW 315 7,5 C 7,3 km/h (2 Bft)
28.05.2015 09:00 14,2 C 21,6 C 59 % 1020,2 hPa 0,0 mm 2,8 km/h (1 Bft) N-NO 22 6,3 C 4,1 km/h (1 Bft)
28.05.2015 09:05 14,0 C 20,3 C 61 % 1020,2 hPa 0,0 mm 3,1 km/h (1 Bft) N-NW 337 6,6 C 0,0 km/h (0 Bft)
28.05.2015 09:10 14,5 C 20,4 C 60 % 1020,5 hPa 0,0 mm 2,6 km/h (1 Bft) N-NW 337 6,8 C 8,3 km/h (2 Bft)
28.05.2015 09:15 14,4 C 20,3 C 59 % 1020,5 hPa 0,0 mm 4,1 km/h (1 Bft) W 270 6,5 C 12,4 km/h (3 Bft)
28.05.2015 09:20 14,1 C 20,3 C 58 % 1020,5 hPa 0,0 mm 4,1 km/h (1 Bft) W 270 6,0 C 12,4 km/h (3 Bft)
28.05.2015 09:25 14,2 C 20,3 C 58 % 1020,5 hPa 0,0 mm 4,1 km/h (1 Bft) W 270 6,1 C 13,5 km/h (3 Bft)
28.05.2015 09:30 14,4 C 19,0 C 58 % 1020,6 hPa 0,0 mm 8,0 km/h (2 Bft) NW 315 6,2 C 10,9 km/h (2 Bft)
28.05.2015 09:35 14,5 C 19,3 C 57 % 1020,6 hPa 0,0 mm 8,3 km/h (2 Bft) N-NW 337 6,1 C 6,7 km/h (2 Bft)
28.05.2015 09:40 14,5 C 19,0 C 57 % 1020,6 hPa 0,0 mm 8,8 km/h (2 Bft) NW 315 6,1 C 15,0 km/h (3 Bft)
28.05.2015 09:45 14,6 C 19,1 C 57 % 1020,6 hPa 0,0 mm 7,3 km/h (2 Bft) W-NW 292 6,2 C 15,3 km/h (3 Bft)
28.05.2015 09:50 15,0 C 20,0 C 57 % 1020,7 hPa 0,0 mm 5,7 km/h (1 Bft) W-NW 292 6,6 C 7,0 km/h (2 Bft)
28.05.2015 09:55 15,3 C 20,4 C 57 % 1020,7 hPa 0,0 mm 5,7 km/h (1 Bft) W-NW 292 6,8 C 8,8 km/h (2 Bft)
28.05.2015 10:00 15,3 C 20,5 C 56 % 1020,7 hPa 0,0 mm 6,2 km/h (2 Bft) NW 315 6,6 C 11,1 km/h (2 Bft)
28.05.2015 10:05 15,4 C 20,3 C 56 % 1020,7 hPa 0,0 mm 7,3 km/h (2 Bft) N-NW 337 6,7 C 9,6 km/h (2 Bft)
28.05.2015 10:10 15,4 C 20,2 C 56 % 1020,7 hPa 0,0 mm 7,8 km/h (2 Bft) N-NO 22 6,7 C 14,8 km/h (3 Bft)
28.05.2015 10:15 15,3 C 19,9 C 55 % 1020,7 hPa 0,0 mm 8,5 km/h (2 Bft) W 270 6,3 C 18,6 km/h (3 Bft)
28.05.2015 10:20 15,3 C 19,9 C 55 % 1020,7 hPa 0,0 mm 9,1 km/h (2 Bft) N-NW 337 6,3 C 8,8 km/h (2 Bft)
28.05.2015 10:25 15,3 C 19,8 C 55 % 1020,7 hPa 0,0 mm 8,5 km/h (2 Bft) N 360 6,3 C 18,9 km/h (3 Bft)
28.05.2015 10:30 15,3 C 20,1 C 56 % 1021,0 hPa 0,0 mm 7,5 km/h (2 Bft) NW 315 6,6 C 13,7 km/h (3 Bft)
28.05.2015 10:35 15,3 C 20,1 C 56 % 1021,0 hPa 0,0 mm 7,3 km/h (2 Bft) NW 315 6,6 C 12,7 km/h (3 Bft)
28.05.2015 10:40 15,3 C 20,2 C 56 % 1021,0 hPa 0,0 mm 7,8 km/h (2 Bft) N-NW 337 6,6 C 5,2 km/h (1 Bft)
28.05.2015 10:45 15,3 C 20,7 C 56 % 1021,0 hPa 0,0 mm 7,0 km/h (2 Bft) W 270 6,6 C 14,0 km/h (3 Bft)
28.05.2015 10:50 15,3 C 20,3 C 56 % 1021,1 hPa 0,0 mm 8,3 km/h (2 Bft) W-NW 292 6,6 C 12,2 km/h (2 Bft)
28.05.2015 10:55 16,1 C 20,2 C 53 % 1021,1 hPa 0,0 mm 8,5 km/h (2 Bft) N-NO 22 6,5 C 9,6 km/h (2 Bft)
28.05.2015 11:00 16,0 C 20,1 C 52 % 1021,1 hPa 0,0 mm 9,1 km/h (2 Bft) W 270 6,2 C 17,9 km/h (3 Bft)
28.05.2015 11:05 16,1 C 20,1 C 52 % 1021,1 hPa 0,0 mm 9,3 km/h (2 Bft) NO 45 6,2 C 20,2 km/h (4 Bft)
28.05.2015 11:10 16,3 C 20,4 C 51 % 1021,3 hPa 0,0 mm 8,5 km/h (2 Bft) W 270 6,1 C 4,4 km/h (1 Bft)
28.05.2015 11:15 15,9 C 20,2 C 54 % 1021,3 hPa 0,0 mm 8,5 km/h (2 Bft) W 270 6,6 C 23,8 km/h (4 Bft)
28.05.2015 11:20 16,2 C 20,1 C 51 % 1021,3 hPa 0,0 mm 8,8 km/h (2 Bft) N-NO 22 6,1 C 8,5 km/h (2 Bft)
28.05.2015 11:25 16,4 C 20,2 C 52 % 1021,3 hPa 0,0 mm 8,8 km/h (2 Bft) NW 315 6,5 C 9,6 km/h (2 Bft)
28.05.2015 11:30 16,6 C 20,0 C 52 % 1021,5 hPa 0,0 mm 10,1 km/h (2 Bft) N-NW 337 6,7 C 10,4 km/h (2 Bft)
28.05.2015 11:35 16,6 C 19,8 C 52 % 1021,5 hPa 0,0 mm 12,9 km/h (3 Bft) SW 225 6,7 C 15,5 km/h (3 Bft)
28.05.2015 11:40 16,5 C 19,9 C 53 % 1021,5 hPa 0,0 mm 11,4 km/h (2 Bft) N-NW 337 6,9 C 10,9 km/h (2 Bft)
28.05.2015 11:45 16,8 C 20,2 C 53 % 1021,5 hPa 0,0 mm 8,8 km/h (2 Bft) S-SW 202 7,2 C 12,9 km/h (3 Bft)
28.05.2015 11:50 16,7 C 20,2 C 53 % 1021,4 hPa 0,0 mm 10,1 km/h (2 Bft) NW 315 7,1 C 13,2 km/h (3 Bft)
28.05.2015 11:55 16,7 C 20,4 C 52 % 1021,4 hPa 0,0 mm 9,1 km/h (2 Bft) N-NO 22 6,8 C 8,0 km/h (2 Bft)
28.05.2015 12:00 17,3 C 21,1 C 53 % 1021,4 hPa 0,0 mm 7,5 km/h (2 Bft) N-NW 337 7,6 C 10,4 km/h (2 Bft)
28.05.2015 12:05 17,5 C 21,1 C 53 % 1021,4 hPa 0,0 mm 7,5 km/h (2 Bft) NW 315 7,8 C 16,6 km/h (3 Bft)
28.05.2015 12:10 17,4 C 21,7 C 52 % 1021,2 hPa 0,0 mm 6,2 km/h (2 Bft) SW 225 7,4 C 6,5 km/h (2 Bft)
28.05.2015 12:15 17,5 C 22,1 C 51 % 1021,2 hPa 0,0 mm 4,4 km/h (1 Bft) N-NW 337 7,3 C 11,9 km/h (2 Bft)
28.05.2015 12:20 17,5 C 22,0 C 51 % 1021,2 hPa 0,0 mm 7,5 km/h (2 Bft) NW 315 7,3 C 18,9 km/h (3 Bft)
28.05.2015 12:25 17,5 C 21,3 C 50 % 1021,2 hPa 0,0 mm 10,6 km/h (2 Bft) W-NW 292 7,0 C 9,3 km/h (2 Bft)
28.05.2015 12:30 17,5 C 20,7 C 49 % 1020,9 hPa 0,0 mm 14,0 km/h (3 Bft) NW 315 6,7 C 17,6 km/h (3 Bft)
28.05.2015 12:35 17,7 C 20,1 C 50 % 1020,9 hPa 0,0 mm 12,7 km/h (3 Bft) NW 315 7,1 C 28,0 km/h (4 Bft)
28.05.2015 12:40 18,0 C 19,8 C 49 % 1020,9 hPa 0,0 mm 10,6 km/h (2 Bft) NW 315 7,1 C 12,4 km/h (3 Bft)
28.05.2015 12:45 18,1 C 19,8 C 49 % 1020,9 hPa 0,0 mm 9,8 km/h (2 Bft) NW 315 7,2 C 11,9 km/h (2 Bft)
28.05.2015 12:50 18,0 C 19,5 C 48 % 1020,7 hPa 0,0 mm 12,2 km/h (2 Bft) W-NW 292 6,8 C 9,6 km/h (2 Bft)
28.05.2015 12:55 18,3 C 20,1 C 48 % 1020,7 hPa 0,0 mm 11,9 km/h (2 Bft) NW 315 7,1 C 17,3 km/h (3 Bft)
28.05.2015 13:00 18,6 C 21,0 C 49 % 1020,7 hPa 0,0 mm 9,8 km/h (2 Bft) NW 315 7,7 C 20,7 km/h (4 Bft)
28.05.2015 13:05 18,5 C 21,1 C 48 % 1020,7 hPa 0,0 mm 11,1 km/h (2 Bft) W-NW 292 7,3 C 7,8 km/h (2 Bft)
28.05.2015 13:10 18,7 C 21,6 C 49 % 1020,4 hPa 0,0 mm 9,3 km/h (2 Bft) NW 315 7,8 C 10,4 km/h (2 Bft)
28.05.2015 13:15 18,7 C 22,0 C 49 % 1020,4 hPa 0,0 mm 6,5 km/h (2 Bft) NW 315 7,8 C 8,8 km/h (2 Bft)
28.05.2015 13:20 18,7 C 21,9 C 48 % 1020,4 hPa 0,0 mm 9,3 km/h (2 Bft) N 360 7,5 C 21,2 km/h (4 Bft)
28.05.2015 13:25 18,8 C 21,6 C 49 % 1020,4 hPa 0,0 mm 11,4 km/h (2 Bft) N-NW 337 7,9 C 8,0 km/h (2 Bft)
28.05.2015 13:30 18,9 C 21,7 C 48 % 1020,3 hPa 0,0 mm 11,1 km/h (2 Bft) N-NW 337 7,6 C 10,4 km/h (2 Bft)
28.05.2015 13:35 18,9 C 21,8 C 48 % 1020,3 hPa 0,0 mm 11,4 km/h (2 Bft) N-NW 337 7,6 C 16,8 km/h (3 Bft)
28.05.2015 13:40 18,9 C 21,9 C 47 % 1020,3 hPa 0,0 mm 10,4 km/h (2 Bft) W-NW 292 7,3 C 11,7 km/h (2 Bft)
28.05.2015 13:45 18,7 C 21,9 C 46 % 1020,3 hPa 0,0 mm 10,6 km/h (2 Bft) W 270 6,8 C 14,8 km/h (3 Bft)
28.05.2015 13:50 19,1 C 21,9 C 46 % 1020,0 hPa 0,0 mm 12,2 km/h (2 Bft) NW 315 7,2 C 22,0 km/h (4 Bft)
28.05.2015 13:55 18,9 C 21,8 C 46 % 1020,0 hPa 0,0 mm 11,4 km/h (2 Bft) NW 315 7,0 C 31,8 km/h (5 Bft)
28.05.2015 14:00 19,4 C 22,4 C 46 % 1020,0 hPa 0,0 mm 10,6 km/h (2 Bft) W-SW 247 7,5 C 6,7 km/h (2 Bft)
28.05.2015 14:05 19,4 C 22,8 C 45 % 1020,0 hPa 0,0 mm 9,1 km/h (2 Bft) W-SW 247 7,2 C 5,2 km/h (1 Bft)
28.05.2015 14:10 19,7 C 23,0 C 46 % 1019,8 hPa 0,0 mm 7,8 km/h (2 Bft) W 270 7,8 C 15,8 km/h (3 Bft)
28.05.2015 14:15 19,8 C 22,9 C 46 % 1019,8 hPa 0,0 mm 8,5 km/h (2 Bft) NW 315 7,8 C 6,2 km/h (2 Bft)
28.05.2015 14:20 20,0 C 23,1 C 45 % 1019,8 hPa 0,0 mm 8,0 km/h (2 Bft) W-NW 292 7,7 C 5,4 km/h (1 Bft)
28.05.2015 14:25 20,4 C 23,6 C 46 % 1019,8 hPa 0,0 mm 6,0 km/h (2 Bft) W 270 8,4 C 5,7 km/h (1 Bft)
28.05.2015 14:30 20,2 C 23,8 C 42 % 1019,6 hPa 0,0 mm 7,3 km/h (2 Bft) W 270 6,9 C 8,0 km/h (2 Bft)
28.05.2015 14:35 20,1 C 23,7 C 42 % 1019,6 hPa 0,0 mm 8,0 km/h (2 Bft) W 270 6,8 C 16,8 km/h (3 Bft)
28.05.2015 14:40 20,2 C 23,7 C 42 % 1019,6 hPa 0,0 mm 7,5 km/h (2 Bft) W-NW 292 6,9 C 4,9 km/h (1 Bft)
28.05.2015 14:45 20,3 C 23,8 C 42 % 1019,6 hPa 0,0 mm 7,0 km/h (2 Bft) NW 315 7,0 C 6,2 km/h (2 Bft)
28.05.2015 14:50 20,0 C 23,5 C 39 % 1019,4 hPa 0,0 mm 8,5 km/h (2 Bft) W-NW 292 5,6 C 7,3 km/h (2 Bft)
28.05.2015 14:55 19,9 C 23,1 C 39 % 1019,4 hPa 0,0 mm 10,6 km/h (2 Bft) W-NW 292 5,5 C 22,8 km/h (4 Bft)
28.05.2015 15:00 19,6 C 22,4 C 39 % 1019,4 hPa 0,0 mm 9,8 km/h (2 Bft) NW 315 5,3 C 12,2 km/h (2 Bft)
28.05.2015 15:05 19,9 C 22,7 C 39 % 1019,4 hPa 0,0 mm 9,6 km/h (2 Bft) W-SW 247 5,5 C 4,7 km/h (1 Bft)
28.05.2015 15:10 20,1 C 23,2 C 38 % 1019,0 hPa 0,0 mm 8,5 km/h (2 Bft) NW 315 5,3 C 17,6 km/h (3 Bft)
28.05.2015 15:15 20,0 C 23,1 C 37 % 1019,0 hPa 0,0 mm 9,8 km/h (2 Bft) O-SO 112 4,9 C 9,6 km/h (2 Bft)
28.05.2015 15:20 20,2 C 23,3 C 37 % 1016,3 hPa 0,0 mm 11,7 km/h (2 Bft) NW 315 5,0 C 24,6 km/h (4 Bft)
28.05.2015 15:25 20,2 C 23,3 C 37 % 1016,3 hPa 0,0 mm 9,3 km/h (2 Bft) W-SW 247 5,0 C 12,9 km/h (3 Bft)
28.05.2015 15:30 20,2 C 23,5 C 38 % 1016,3 hPa 0,0 mm 8,8 km/h (2 Bft) W-SW 247 5,4 C 9,3 km/h (2 Bft)
28.05.2015 15:35 20,5 C 23,9 C 38 % 1016,3 hPa 0,0 mm 8,0 km/h (2 Bft) NW 315 5,7 C 9,3 km/h (2 Bft)
28.05.2015 15:40 20,3 C 24,0 C 37 % 1015,7 hPa 0,0 mm 8,0 km/h (2 Bft) W-NW 292 5,1 C 12,7 km/h (3 Bft)
28.05.2015 15:45 20,2 C 23,6 C 36 % 1015,7 hPa 0,0 mm 10,1 km/h (2 Bft) W-SW 247 4,7 C 19,7 km/h (3 Bft)
28.05.2015 15:50 20,3 C 23,7 C 36 % 1015,7 hPa 0,0 mm 9,3 km/h (2 Bft) NW 315 4,7 C 11,1 km/h (2 Bft)
28.05.2015 15:55 20,3 C 24,2 C 37 % 1015,7 hPa 0,0 mm 6,2 km/h (2 Bft) NW 315 5,1 C 13,2 km/h (3 Bft)
28.05.2015 16:00 20,1 C 24,3 C 37 % 1015,6 hPa 0,0 mm 7,5 km/h (2 Bft) N-NW 337 5,0 C 16,1 km/h (3 Bft)
28.05.2015 16:05 19,5 C 24,1 C 36 % 1015,6 hPa 0,0 mm 10,4 km/h (2 Bft) W 270 4,0 C 14,8 km/h (3 Bft)
28.05.2015 16:10 19,1 C 23,9 C 37 % 1015,6 hPa 0,0 mm 9,8 km/h (2 Bft) W-NW 292 4,1 C 12,9 km/h (3 Bft)
28.05.2015 16:15 19,1 C 23,9 C 37 % 1015,6 hPa 0,0 mm 9,1 km/h (2 Bft) W-NW 292 4,1 C 12,7 km/h (3 Bft)
28.05.2015 16:20 19,0 C 23,9 C 37 % 1015,3 hPa 0,0 mm 8,5 km/h (2 Bft) W 270 4,0 C 16,6 km/h (3 Bft)
28.05.2015 16:25 18,9 C 23,9 C 37 % 1015,3 hPa 0,0 mm 7,5 km/h (2 Bft) NW 315 3,9 C 7,3 km/h (2 Bft)
28.05.2015 16:30 19,0 C 24,3 C 37 % 1015,3 hPa 0,0 mm 7,8 km/h (2 Bft) NW 315 4,0 C 15,5 km/h (3 Bft)
28.05.2015 16:35 18,9 C 23,9 C 37 % 1015,3 hPa 0,0 mm 9,3 km/h (2 Bft) W-NW 292 3,9 C 11,9 km/h (2 Bft)
28.05.2015 16:40 18,9 C 23,7 C 38 % 1015,4 hPa 0,0 mm 11,4 km/h (2 Bft) NW 315 4,3 C 10,1 km/h (2 Bft)
28.05.2015 16:45 18,9 C 23,9 C 38 % 1015,4 hPa 0,0 mm 8,8 km/h (2 Bft) NW 315 4,3 C 8,5 km/h (2 Bft)
28.05.2015 16:50 18,9 C 24,1 C 38 % 1015,4 hPa 0,0 mm 8,3 km/h (2 Bft) W 270 4,3 C 13,7 km/h (3 Bft)
28.05.2015 16:55 18,9 C 23,8 C 37 % 1015,4 hPa 0,0 mm 10,4 km/h (2 Bft) W 270 3,9 C 17,1 km/h (3 Bft)
28.05.2015 17:00 18,8 C 21,9 C 37 % 1015,3 hPa 0,0 mm 9,1 km/h (2 Bft) S-SW 202 3,8 C 5,4 km/h (1 Bft)
28.05.2015 17:05 18,8 C 20,9 C 37 % 1015,3 hPa 0,0 mm 8,5 km/h (2 Bft) NW 315 3,8 C 23,6 km/h (4 Bft)
28.05.2015 17:10 18,9 C 20,0 C 36 % 1015,3 hPa 0,0 mm 10,9 km/h (2 Bft) W 270 3,5 C 15,3 km/h (3 Bft)
28.05.2015 17:15 18,8 C 19,7 C 36 % 1015,3 hPa 0,0 mm 11,1 km/h (2 Bft) N-NO 22 3,4 C 9,8 km/h (2 Bft)
28.05.2015 17:20 19,0 C 19,5 C 36 % 1015,2 hPa 0,0 mm 9,6 km/h (2 Bft) W-NW 292 3,6 C 19,2 km/h (3 Bft)
28.05.2015 17:25 18,9 C 19,5 C 36 % 1015,2 hPa 0,0 mm 9,8 km/h (2 Bft) N-NW 337 3,5 C 9,3 km/h (2 Bft)
28.05.2015 17:30 18,9 C 19,3 C 36 % 1015,2 hPa 0,0 mm 8,5 km/h (2 Bft) W 270 3,5 C 7,8 km/h (2 Bft)
28.05.2015 17:35 18,9 C 19,3 C 35 % 1015,2 hPa 0,0 mm 8,5 km/h (2 Bft) NW 315 3,1 C 23,8 km/h (4 Bft)
28.05.2015 17:40 18,8 C 19,4 C 35 % 1015,0 hPa 0,0 mm 10,1 km/h (2 Bft) N-NW 337 3,0 C 13,5 km/h (3 Bft)
28.05.2015 17:45 18,7 C 19,3 C 35 % 1015,0 hPa 0,0 mm 9,3 km/h (2 Bft) W 270 2,9 C 14,2 km/h (3 Bft)
28.05.2015 17:50 18,7 C 19,3 C 35 % 1015,0 hPa 0,0 mm 8,3 km/h (2 Bft) NW 315 2,9 C 14,2 km/h (3 Bft)
28.05.2015 17:55 18,7 C 19,3 C 34 % 1015,0 hPa 0,0 mm 9,6 km/h (2 Bft) SW 225 2,5 C 6,2 km/h (2 Bft)
28.05.2015 18:00 18,6 C 19,2 C 34 % 1014,8 hPa 0,0 mm 9,8 km/h (2 Bft) W-NW 292 2,4 C 6,7 km/h (2 Bft)
28.05.2015 18:05 18,6 C 19,1 C 35 % 1014,8 hPa 0,0 mm 7,8 km/h (2 Bft) NW 315 2,8 C 5,2 km/h (1 Bft)
28.05.2015 18:10 18,6 C 19,1 C 35 % 1014,8 hPa 0,0 mm 7,5 km/h (2 Bft) SW 225 2,8 C 7,0 km/h (2 Bft)
28.05.2015 18:15 18,6 C 19,0 C 35 % 1014,8 hPa 0,0 mm 8,5 km/h (2 Bft) S 180 2,8 C 16,8 km/h (3 Bft)
28.05.2015 18:20 18,6 C 19,0 C 33 % 1014,9 hPa 0,0 mm 10,4 km/h (2 Bft) W-SW 247 2,0 C 10,4 km/h (2 Bft)
28.05.2015 18:25 18,6 C 19,0 C 33 % 1014,9 hPa 0,0 mm 10,1 km/h (2 Bft) NW 315 2,0 C 7,0 km/h (2 Bft)
28.05.2015 18:30 18,5 C 19,4 C 33 % 1014,9 hPa 0,0 mm 7,5 km/h (2 Bft) S 180 1,9 C 7,0 km/h (2 Bft)
28.05.2015 18:35 18,5 C 19,8 C 33 % 1014,9 hPa 0,0 mm 6,7 km/h (2 Bft) NW 315 1,9 C 10,9 km/h (2 Bft)
28.05.2015 18:40 18,5 C 20,8 C 33 % 1014,8 hPa 0,0 mm 9,1 km/h (2 Bft) SW 225 1,9 C 11,9 km/h (2 Bft)
28.05.2015 18:45 18,2 C 21,3 C 33 % 1014,8 hPa 0,0 mm 9,3 km/h (2 Bft) NW 315 1,7 C 13,7 km/h (3 Bft)
28.05.2015 18:50 18,2 C 21,6 C 33 % 1014,8 hPa 0,0 mm 8,3 km/h (2 Bft) W 270 1,7 C 5,4 km/h (1 Bft)
28.05.2015 18:55 18,1 C 21,8 C 33 % 1014,8 hPa 0,0 mm 8,0 km/h (2 Bft) NW 315 1,6 C 12,2 km/h (2 Bft)
28.05.2015 19:00 18,1 C 21,9 C 34 % 1014,6 hPa 0,0 mm 7,5 km/h (2 Bft) W-SW 247 2,0 C 17,6 km/h (3 Bft)
28.05.2015 19:05 18,1 C 21,9 C 34 % 1014,6 hPa 0,0 mm 7,3 km/h (2 Bft) W 270 2,0 C 0,0 km/h (0 Bft)
28.05.2015 19:10 18,0 C 22,4 C 34 % 1014,6 hPa 0,0 mm 6,7 km/h (2 Bft) W-SW 247 1,9 C 9,3 km/h (2 Bft)
28.05.2015 19:15 17,8 C 22,6 C 35 % 1014,6 hPa 0,0 mm 5,7 km/h (1 Bft) NW 315 2,1 C 6,5 km/h (2 Bft)
28.05.2015 19:20 17,8 C 22,7 C 35 % 1014,8 hPa 0,0 mm 5,2 km/h (1 Bft) SW 225 2,1 C 8,3 km/h (2 Bft)
28.05.2015 19:25 17,7 C 22,7 C 35 % 1014,8 hPa 0,0 mm 5,4 km/h (1 Bft) W-SW 247 2,1 C 8,0 km/h (2 Bft)
28.05.2015 19:30 17,7 C 22,5 C 36 % 1014,8 hPa 0,0 mm 4,9 km/h (1 Bft) S 180 2,4 C 2,6 km/h (1 Bft)
28.05.2015 19:35 17,6 C 22,2 C 36 % 1014,8 hPa 0,0 mm 4,4 km/h (1 Bft) W-NW 292 2,4 C 0,0 km/h (0 Bft)
28.05.2015 19:40 17,2 C 21,6 C 37 % 1014,8 hPa 0,0 mm 2,6 km/h (1 Bft) W-SW 247 2,4 C 3,4 km/h (1 Bft)
28.05.2015 19:45 16,8 C 20,8 C 37 % 1014,8 hPa 0,0 mm 2,1 km/h (1 Bft) NW 315 2,0 C 7,8 km/h (2 Bft)
28.05.2015 19:50 16,3 C 19,2 C 37 % 1014,8 hPa 0,0 mm 3,1 km/h (1 Bft) W-SW 247 1,6 C 6,0 km/h (2 Bft)
28.05.2015 19:55 16,0 C 18,1 C 38 % 1014,8 hPa 0,0 mm 3,9 km/h (1 Bft) S 180 1,7 C 6,7 km/h (2 Bft)
28.05.2015 20:00 15,7 C 17,0 C 38 % 1014,8 hPa 0,0 mm 4,4 km/h (1 Bft) S 180 1,4 C 5,2 km/h (1 Bft)
28.05.2015 20:05 15,4 C 16,3 C 39 % 1014,8 hPa 0,0 mm 4,7 km/h (1 Bft) S 180 1,5 C 6,2 km/h (2 Bft)
28.05.2015 20:10 15,3 C 15,7 C 39 % 1014,8 hPa 0,0 mm 4,1 km/h (1 Bft) W-SW 247 1,4 C 10,4 km/h (2 Bft)
28.05.2015 20:15 15,3 C 15,5 C 39 % 1014,8 hPa 0,0 mm 5,7 km/h (1 Bft) S-SW 202 1,4 C 7,8 km/h (2 Bft)
28.05.2015 20:20 14,9 C 15,2 C 40 % 1014,7 hPa 0,0 mm 4,9 km/h (1 Bft) NW 315 1,4 C 3,9 km/h (1 Bft)
28.05.2015 20:25 14,6 C 14,9 C 41 % 1014,7 hPa 0,0 mm 3,6 km/h (1 Bft) SW 225 1,5 C 4,1 km/h (1 Bft)
28.05.2015 20:30 14,6 C 14,6 C 41 % 1014,7 hPa 0,0 mm 3,6 km/h (1 Bft) W-SW 247 1,5 C 2,8 km/h (1 Bft)
28.05.2015 20:35 14,5 C 14,5 C 42 % 1014,7 hPa 0,0 mm 4,4 km/h (1 Bft) W 270 1,7 C 5,4 km/h (1 Bft)
28.05.2015 20:40 14,2 C 14,2 C 43 % 1014,8 hPa 0,0 mm 3,1 km/h (1 Bft) SW 225 1,8 C 4,7 km/h (1 Bft)
28.05.2015 20:45 14,0 C 14,0 C 44 % 1014,8 hPa 0,0 mm 2,8 km/h (1 Bft) W-SW 247 1,9 C 10,9 km/h (2 Bft)
28.05.2015 20:50 14,0 C 13,9 C 44 % 1014,8 hPa 0,0 mm 3,4 km/h (1 Bft) S-SW 202 1,9 C 0,0 km/h (0 Bft)
28.05.2015 20:55 14,0 C 13,9 C 44 % 1014,8 hPa 0,0 mm 3,9 km/h (1 Bft) W-SW 247 1,9 C 7,8 km/h (2 Bft)
28.05.2015 21:00 13,8 C 13,7 C 45 % 1014,9 hPa 0,0 mm 3,1 km/h (1 Bft) SW 225 2,1 C 4,7 km/h (1 Bft)
28.05.2015 21:05 13,8 C 13,7 C 45 % 1014,9 hPa 0,0 mm 3,1 km/h (1 Bft) SW 225 2,1 C 9,8 km/h (2 Bft)
28.05.2015 21:10 13,9 C 13,8 C 45 % 1014,9 hPa 0,0 mm 4,7 km/h (1 Bft) SW 225 2,2 C 7,0 km/h (2 Bft)
28.05.2015 21:15 13,8 C 13,7 C 45 % 1014,9 hPa 0,0 mm 4,9 km/h (1 Bft) W-SW 247 2,1 C 7,3 km/h (2 Bft)
28.05.2015 21:20 13,5 C 13,4 C 45 % 1015,0 hPa 0,0 mm 4,1 km/h (1 Bft) W-SW 247 1,8 C 2,6 km/h (1 Bft)
28.05.2015 21:25 13,2 C 13,2 C 46 % 1015,0 hPa 0,0 mm 3,1 km/h (1 Bft) W 270 1,8 C 4,4 km/h (1 Bft)
28.05.2015 21:30 13,1 C 13,0 C 46 % 1015,0 hPa 0,0 mm 2,3 km/h (1 Bft) W-SW 247 1,7 C 5,4 km/h (1 Bft)
28.05.2015 21:35 13,1 C 12,9 C 47 % 1015,0 hPa 0,0 mm 2,6 km/h (1 Bft) W-SW 247 2,0 C 3,6 km/h (1 Bft)
28.05.2015 21:40 13,0 C 12,9 C 47 % 1015,4 hPa 0,0 mm 3,4 km/h (1 Bft) W-SW 247 2,0 C 6,0 km/h (2 Bft)
28.05.2015 21:45 13,0 C 12,8 C 47 % 1015,4 hPa 0,0 mm 3,6 km/h (1 Bft) S 180 2,0 C 8,5 km/h (2 Bft)
28.05.2015 21:50 12,9 C 12,7 C 47 % 1015,4 hPa 0,0 mm 3,9 km/h (1 Bft) SW 225 1,9 C 4,7 km/h (1 Bft)
28.05.2015 21:55 12,7 C 12,6 C 47 % 1015,4 hPa 0,0 mm 3,6 km/h (1 Bft) SW 225 1,7 C 5,4 km/h (1 Bft)
28.05.2015 22:00 12,7 C 12,5 C 48 % 1015,1 hPa 0,0 mm 3,4 km/h (1 Bft) W-SW 247 2,0 C 4,7 km/h (1 Bft)
28.05.2015 22:05 12,6 C 12,4 C 48 % 1015,1 hPa 0,0 mm 3,9 km/h (1 Bft) SW 225 1,9 C 5,4 km/h (1 Bft)
28.05.2015 22:10 12,6 C 12,5 C 48 % 1015,1 hPa 0,0 mm 4,4 km/h (1 Bft) SW 225 1,9 C 8,5 km/h (2 Bft)
28.05.2015 22:15 12,7 C 12,6 C 48 % 1015,1 hPa 0,0 mm 4,9 km/h (1 Bft) W-SW 247 2,0 C 11,9 km/h (2 Bft)
28.05.2015 22:20 12,8 C 12,7 C 48 % 1015,2 hPa 0,0 mm 6,0 km/h (2 Bft) SW 225 2,1 C 8,3 km/h (2 Bft)
28.05.2015 22:25 12,9 C 12,8 C 48 % 1015,2 hPa 0,0 mm 7,0 km/h (2 Bft) W-SW 247 2,2 C 9,8 km/h (2 Bft)
28.05.2015 22:30 12,9 C 12,8 C 48 % 1015,2 hPa 0,0 mm 7,0 km/h (2 Bft) SW 225 2,2 C 8,5 km/h (2 Bft)
28.05.2015 22:35 12,9 C 12,8 C 48 % 1015,2 hPa 0,0 mm 6,5 km/h (2 Bft) SW 225 2,2 C 9,6 km/h (2 Bft)
28.05.2015 22:40 12,9 C 12,8 C 48 % 1015,2 hPa 0,0 mm 7,3 km/h (2 Bft) S-SW 202 2,2 C 15,5 km/h (3 Bft)
28.05.2015 22:45 12,9 C 12,9 C 49 % 1015,2 hPa 0,0 mm 8,0 km/h (2 Bft) SW 225 2,5 C 8,8 km/h (2 Bft)
28.05.2015 22:50 12,8 C 12,8 C 49 % 1015,2 hPa 0,0 mm 8,5 km/h (2 Bft) SW 225 2,4 C 8,5 km/h (2 Bft)
28.05.2015 22:55 12,7 C 12,7 C 49 % 1015,2 hPa 0,0 mm 8,0 km/h (2 Bft) SW 225 2,3 C 9,6 km/h (2 Bft)
28.05.2015 23:00 12,7 C 12,7 C 49 % 1015,2 hPa 0,0 mm 7,8 km/h (2 Bft) S-SW 202 2,3 C 12,2 km/h (2 Bft)
28.05.2015 23:05 12,7 C 12,7 C 49 % 1015,2 hPa 0,0 mm 8,3 km/h (2 Bft) S 180 2,3 C 7,8 km/h (2 Bft)
28.05.2015 23:10 12,2 C 12,6 C 51 % 1015,2 hPa 0,0 mm 8,3 km/h (2 Bft) S 180 2,4 C 8,5 km/h (2 Bft)
28.05.2015 23:15 11,7 C 12,3 C 53 % 1015,2 hPa 0,0 mm 7,8 km/h (2 Bft) W-SW 247 2,4 C 12,9 km/h (3 Bft)
28.05.2015 23:20 11,3 C 11,8 C 54 % 1015,5 hPa 0,0 mm 6,7 km/h (2 Bft) SW 225 2,3 C 4,9 km/h (1 Bft)
28.05.2015 23:25 10,9 C 11,5 C 55 % 1015,5 hPa 0,0 mm 6,2 km/h (2 Bft) S 180 2,2 C 5,2 km/h (1 Bft)
28.05.2015 23:30 10,7 C 11,2 C 56 % 1015,5 hPa 0,0 mm 4,7 km/h (1 Bft) S 180 2,3 C 3,4 km/h (1 Bft)
28.05.2015 23:35 10,4 C 10,9 C 57 % 1015,5 hPa 0,0 mm 3,4 km/h (1 Bft) S 180 2,3 C 3,6 km/h (1 Bft)
28.05.2015 23:40 10,4 C 10,7 C 57 % 1015,5 hPa 0,0 mm 2,6 km/h (1 Bft) S 180 2,3 C 3,1 km/h (1 Bft)
28.05.2015 23:45 10,3 C 10,5 C 58 % 1015,5 hPa 0,0 mm 1,8 km/h (1 Bft) S-SO 157 2,4 C 0,0 km/h (0 Bft)
28.05.2015 23:50 10,3 C 10,4 C 58 % 1015,5 hPa 0,0 mm 2,3 km/h (1 Bft) S-SW 202 2,4 C 6,7 km/h (2 Bft)
28.05.2015 23:55 10,4 C 10,5 C 58 % 1015,5 hPa 0,0 mm 4,4 km/h (1 Bft) S-SW 202 2,5 C 15,3 km/h (3 Bft)
_ Min-Zeit 05:50 05:50 18:55 19:15 - 08:25 - - 05:10 23:45
Minimum _ 1,0 C 0,7 C 33 % 1014,6 hPa - 0,0 km/h (0 Bft) - - -0,6 C 0,0 km/h (0 Bft)
_ Max-Zeit 15:35 16:30 06:00 04:10 23:55 12:30 - - 14:25 13:55
Maximum _ 20,5 C 24,3 C 91 % 1023,6 hPa 0,0 mm 14,0 km/h
NW (3 Bft)
- - 8,4 C 31,8 km/h
NW (5 Bft)
Durchschnitt _ 11,9 C 14,3 C 60 % 1018,6 hPa #0,0 mm 4,7 km/h (1 Bft) NW - 3,4 C 6,7 km/h (2 Bft)